Location: Chervonnoye
(48.6000°N, 34.4000°E)
Time: 01:57:07
(UTC+00:00)

X-37B - Pass Details

Date: 27 September 2021
Orbit: 385 x 389 km, 45.0° (Epoch: 13 October)

Event Time Altitude Azimuth Distance (km) Brightness Sun altitude
Exits shadow 01:49:33 37° 177° (S) 615 1.4 -18.1°
Maximum altitude 01:49:41 38° 170° (S) 612 1.4 -18.1°
Drops below altitude 10° 01:52:40 10° 101° (E) 1,415 4.3 -17.7°
Sets 01:54:49 0° 93° (E) 2,271 5.8 -17.3°
